Regional Weather Roundup
Issued by NWS

Home | Current Version | Previous Version | Text Only | Print | Product List | Glossary On
Versions: 1 2 3 4 5 6 7 8 9 10 11 12 13 14 15 16 17 18 19 20 21 22 23 24 25 26 27 28 29 30 31 32 33 34 35 36 37 38 39 40 41 42 43 44 45 46 47 48 49 50
952
ASUS43 KFSD 181510
RWRSD

WEATHER ROUNDUP FOR SOUTH DAKOTA
NATIONAL WEATHER SERVICE SIOUX FALLS SD
900 AM CST THU JAN 18 2018

NOTE: "FAIR" INDICATES FEW OR NO CLOUDS BELOW 12,000 FEET WITH NO
SIGNIFICANT WEATHER AND/OR OBSTRUCTIONS TO VISIBILITY.


SDZ001>005-009-010-012>017-181600-
NORTHWEST AND NORTH CENTRAL SOUTH DAKOTA

CITY           SKY/WX    TMP DP  RH WIND       PRES   REMARKS
BUFFALO          N/A     35  22  58 W12       29.77F WCI  27
FAITH            N/A     33  21  61 W10       29.85F WCI  25
MOBRIDGE       CLOUDY    21  16  81 SE5       29.81F WCI  15
$$

SDZ012>016-024>037-041>051-057-063-072>074-181600-
SOUTHWEST AND SOUTH CENTRAL SOUTH DAKOTA

CITY           SKY/WX    TMP DP  RH WIND       PRES   REMARKS
RAPID CTY ARPT CLOUDY    38  15  39 CALM      29.89F
PIERRE         CLOUDY    25  21  85 W3        29.89R
CUSTER         CLOUDY    38   7  27 CALM      29.95F
ELLSWORTH AFB  CLOUDY    36  16  43 W7        29.88F
PHILIP         CLOUDY    29  22  75 W14       29.90S WCI  18
PINE RIDGE     CLOUDY    35  23  61 SW7       29.97S WCI  29
SPEARFISH        N/A     43  14  31 CALM      29.88F
WINNER         FAIR      35  23  61 SW7       29.91R WCI  29
$$

SDZ004>011-016>023-039-040-181600-
NORTHEAST SOUTH DAKOTA

CITY           SKY/WX    TMP DP  RH WIND       PRES   REMARKS
ABERDEEN       PTCLDY    19  15  84 S8        29.86S WCI   9
WATERTOWN      CLOUDY    16  14  92 SE3       29.86F
BROOKINGS      CLOUDY    24  20  84 S7        29.89F WCI  16
SISSETON         N/A     37  22  54 W15       29.80F
$$

SDZ017-020-022-023-036>040-048>070-181600-
SOUTHEAST SOUTH DAKOTA

CITY           SKY/WX    TMP DP  RH WIND       PRES   REMARKS
SIOUX FALLS    CLOUDY    16  14  92 CALM      29.94S
HURON          CLEAR     20  17  88 S7        29.89F WCI  11
CHAMBERLAIN    PTCLDY    28  24  85 CALM      29.91R
MITCHELL       CLEAR     18  15  88 SE3       29.93S
YANKTON        CLOUDY    21  20  96 E3        29.96S
$$

ABBREVIATIONS USED IN REMARKS
   TC - TEMPERATURE IN CELSIUS
  WCI - WIND CHILL INDEX
   HX - HEAT INDEX
  VSB - VISIBILITY





USA.gov is the U.S. government's official web portal to all federal, state and local government web resources and services.